STARLINK-31666, 59572

Orbit data source: Space-Track

STARLINK-31666, 59572 is a payload satellite owned by SpaceX/Seattle (US) in LEO that was launched on Tue, 23 Apr 2024 UTC via an FALCON 9 launch vehicle from the Air Force Eastern Test Range (AFETR). Payload-class satellites include a variety of spacecraft equipped with specific instruments for various scientific and technological missions. These include communications satellites like Starlink; space stations such as the ISS; scientific satellites like the Hubble; Earth observation satellites from companies like Planet Labs, Umbra, and HawkEye 360; GPS; miniature CubeSats for education and research; and military/defense satellites.

Loading next visibility...
Identifier
59572, 2024-076J
Orbit
LEO
Country
Flag of USUS
Related business
Manufacturer
SpaceX/Seattle
Mission
Operational Commercial Communications
Bus & Motor
STARLINK V2M, Unknown motor
Mass
730 kg wet, ~700 kg dry
Launch date (UTC)
2024-04-23 (2 years ago)
Launch vehicle
FALCON 9
Launch site
Air Force Eastern Test Range (AFETR)
Object type
Payload
Rocket body
Debris
Shape & HBR
Box + 2 Pan, 17.7 m
Radar Cross Section
33.884 m², Large (>1 m²)

Expand to show TLE details & history
Last TLE update: 16 hours ago

TLE from 16 hours ago
0 STARLINK-31666
1 59572U 24076J   26035.41237274 -.00000254  00000-0  29520-6 0  9999
2 59572  43.0019 189.9566 0001162 253.8507 106.2217 15.27579211101495
Epoch: 2026-02-04T09:53Z
TLE epoch observation values (Epoch: 2026-02-04T09:53:49.004Z)
Latitude
-0.00002°
Longitude
-93.07692°
Altitude
483.05 km
Speed
7.626 km/s
True Right ascension
12h 39m 49s
True Declination
0° 00' 00"
Sunlit
Object was in full shadow at epoch
Visualization orbit readout
Latitude
Unknown
Longitude
Unknown
Altitude
Unknown
Speed
Unknown
Apparent Right ascension
Unknown
Apparent Declination
Unknown
Sunlit
N/A
Visualization observer readout
Local Sidereal Time
03:54:45
Azimuth
Unknown
Elevation
Unknown
Doppler factor
Unknown
Orbital elements
Apogee altitude
485.794 km
Perigee altitude
484.199 km
Semi-major axis
6,863.133 km
Eccentricity
0.00012
Inclination
43.0019°
RAAN
189.9566°
Arg. of periapsis
253.8507°
True anomaly
106.23448°
Mean anomaly
106.2217°
Eccentric anomaly
106.22809°
Mean motion
3.81733 °/min
Orbital period
94.31 mins
BSTAR
2.952e-7
Loading maneuver chart data...
Computing Atmospheric mass density...
Loading historical data...
Loading historical data...
Loading historical data...
Loading historical data...
Loading historical data...
Loading historical data...
Loading historical data...

Documentation

Showing up to 5 results
|